| time (UTC) | temp F | wind direction | speed MPH | gust MPH | rain 1hr in | rain 24hr in | rain mn in | humidity % | barometer mb |
| 20260831201900 | 72 | 174 | 3.0 | 3.0 | 0.00 | 0.00 | 0.00 | 42 | 1011.2 |
| 20260831201359 | 72 | 222 | 6.0 | 7.0 | 0.00 | 0.00 | 0.00 | 41 | 1011.3 |
| 20260831200855 | 72 | 269 | 10.0 | 11.0 | 0.00 | 0.00 | 0.00 | 41 | 1011.2 |
| 20260831200350 | 72 | 209 | 5.0 | 6.0 | 0.00 | 0.00 | 0.00 | 41 | 1011.2 |
| 20260831195844 | 71 | 165 | 3.0 | 3.0 | 0.00 | 0.00 | 0.00 | 42 | 1011.3 |
| 20260831195340 | 72 | 236 | 5.0 | 6.0 | 0.00 | 0.00 | 0.00 | 43 | 1011.1 |
| 20260831194836 | 72 | 307 | 5.0 | 6.0 | 0.00 | 0.00 | 0.00 | 41 | 1011.1 |
| 20260831194331 | 72 | 126 | 4.0 | 5.0 | 0.00 | 0.00 | 0.00 | 43 | 1011.2 |
| 20260831193830 | 72 | 311 | 7.0 | 9.0 | 0.00 | 0.00 | 0.00 | 42 | 1011.2 |
| 20260831193325 | 71 | 138 | 1.0 | 1.0 | 0.00 | 0.00 | 0.00 | 42 | 1011.1 |
| 20260831192821 | 70 | 144 | 1.0 | 1.0 | 0.00 | 0.00 | 0.00 | 44 | 1011.3 |
| 20260831192321 | 71 | 239 | 5.0 | 7.0 | 0.00 | 0.00 | 0.00 | 42 | 1011.4 |
| 20260831191817 | 72 | 306 | 8.0 | 9.0 | 0.00 | 0.00 | 0.00 | 41 | 1011.5 |
| 20260831191313 | 71 | 271 | 4.0 | 5.0 | 0.00 | 0.00 | 0.00 | 43 | 1011.6 |
| 20260831190808 | 71 | 292 | 8.0 | 9.0 | 0.00 | 0.00 | 0.00 | 44 | 1011.6 |
| 20260831190307 | 71 | 244 | 7.0 | 9.0 | 0.00 | 0.00 | 0.00 | 42 | 1011.7 |
| 20260831185802 | 71 | 252 | 5.0 | 6.0 | 0.00 | 0.00 | 0.00 | 42 | 1011.7 |
| 20260831185258 | 70 | 227 | 5.0 | 7.0 | 0.00 | 0.00 | 0.00 | 44 | 1011.9 |
| 20260831184756 | 71 | 291 | 13.0 | 16.0 | 0.00 | 0.00 | 0.00 | 43 | 1011.9 |
| 20260831184252 | 71 | 307 | 8.0 | 9.0 | 0.00 | 0.00 | 0.00 | 42 | 1011.9 |
| 20260831183747 | 71 | 135 | 4.0 | 6.0 | 0.00 | 0.00 | 0.00 | 44 | 1012.2 |
| 20260831183247 | 71 | 126 | 3.0 | 3.0 | 0.00 | 0.00 | 0.00 | 45 | 1012.0 |
| 20260831182746 | 71 | 108 | 0.0 | 1.0 | 0.00 | 0.00 | 0.00 | 43 | 1012.3 |
| 20260831182241 | 71 | 321 | 7.0 | 9.0 | 0.00 | 0.00 | 0.00 | 42 | 1011.9 |
| 20260831181736 | 69 | 136 | 3.0 | 5.0 | 0.00 | 0.00 | 0.00 | 47 | 1012.2 |
| 20260831181232 | 70 | 294 | 10.0 | 11.0 | 0.00 | 0.00 | 0.00 | 45 | 1012.5 |
| 20260831180731 | 70 | 123 | 1.0 | 1.0 | 0.00 | 0.00 | 0.00 | 45 | 1012.3 |
| 20260831180226 | 70 | 281 | 6.0 | 7.0 | 0.00 | 0.00 | 0.00 | 46 | 1012.6 |
| 20260831175725 | 69 | 164 | 3.0 | 3.0 | 0.00 | 0.00 | 0.00 | 47 | 1012.2 |
| 20260831175222 | 71 | 117 | 7.0 | 9.0 | 0.00 | 0.00 | 0.00 | 45 | 1012.4 |
| 20260831174717 | 70 | 118 | 1.0 | 1.0 | 0.00 | 0.00 | 0.00 | 48 | 1012.5 |
| 20260831174213 | 69 | 157 | 2.0 | 3.0 | 0.00 | 0.00 | 0.00 | 45 | 1012.3 |
| 20260831173711 | 71 | 108 | 3.0 | 5.0 | 0.00 | 0.00 | 0.00 | 45 | 1012.5 |
| 20260831173206 | 69 | 137 | 1.0 | 1.0 | 0.00 | 0.00 | 0.00 | 46 | 1012.4 |
| 20260831172701 | 70 | 176 | 3.0 | 3.0 | 0.00 | 0.00 | 0.00 | 47 | 1012.3 |
| 20260831172156 | 69 | 151 | 3.0 | 3.0 | 0.00 | 0.00 | 0.00 | 46 | 1012.3 |
| 20260831171651 | 69 | 313 | 6.0 | 7.0 | 0.00 | 0.00 | 0.00 | 46 | 1012.4 |
| 20260831171148 | 68 | 129 | 1.0 | 2.0 | 0.00 | 0.00 | 0.00 | 47 | 1012.4 |
| 20260831170644 | 68 | 347 | 6.0 | 7.0 | 0.00 | 0.00 | 0.00 | 50 | 1012.3 |
| 20260831170141 | 68 | 316 | 8.0 | 10.0 | 0.00 | 0.00 | 0.00 | 46 | 1012.5 |
| 20260831165637 | 67 | 343 | 5.0 | 11.0 | 0.00 | 0.00 | 0.00 | 49 | 1012.4 |
| 20260831165133 | 67 | 263 | 2.0 | 2.0 | 0.00 | 0.00 | 0.00 | 51 | 1012.3 |
| 20260831164629 | 66 | 14 | 7.0 | 10.0 | 0.00 | 0.00 | 0.00 | 50 | 1012.4 |
| 20260831164124 | 67 | 296 | 11.0 | 14.0 | 0.00 | 0.00 | 0.00 | 49 | 1012.5 |
| 20260831163620 | 66 | 20 | 2.0 | 3.0 | 0.00 | 0.00 | 0.00 | 48 | 1012.3 |
| 20260831163115 | 66 | 332 | 9.0 | 14.0 | 0.00 | 0.00 | 0.00 | 49 | 1012.5 |
| 20260831162614 | 66 | 305 | 8.0 | 10.0 | 0.00 | 0.00 | 0.00 | 49 | 1012.4 |
| 20260831162112 | 66 | 44 | 6.0 | 9.0 | 0.00 | 0.00 | 0.00 | 50 | 1012.4 |
| 20260831161608 | 64 | 302 | 5.0 | 7.0 | 0.00 | 0.00 | 0.00 | 51 | 1012.3 |
| 20260831161104 | 64 | 297 | 9.0 | 16.0 | 0.00 | 0.00 | 0.00 | 52 | 1012.2 |
| 20260831160603 | 64 | 319 | 9.0 | 15.0 | 0.00 | 0.00 | 0.00 | 52 | 1012.5 |
| 20260831160059 | 64 | 286 | 8.0 | 11.0 | 0.00 | 0.00 | 0.00 | 52 | 1012.3 |
| 20260831155553 | 64 | 313 | 12.0 | 17.0 | 0.00 | 0.00 | 0.00 | 51 | 1012.4 |
| 20260831155049 | 64 | 325 | 13.0 | 17.0 | 0.00 | 0.00 | 0.00 | 50 | 1012.0 |
| 20260831154545 | 64 | 359 | 7.0 | 9.0 | 0.00 | 0.00 | 0.00 | 51 | 1012.3 |
| 20260831154044 | 63 | 283 | 10.0 | 13.0 | 0.00 | 0.00 | 0.00 | 51 | 1012.0 |
| 20260831153544 | 63 | 302 | 11.0 | 14.0 | 0.00 | 0.00 | 0.00 | 52 | 1012.3 |
| 20260831153041 | 62 | 352 | 9.0 | 11.0 | 0.00 | 0.00 | 0.00 | 53 | 1012.2 |
| 20260831152536 | 62 | 310 | 11.0 | 13.0 | 0.00 | 0.00 | 0.00 | 53 | 1012.4 |
| 20260831152032 | 61 | 300 | 13.0 | 16.0 | 0.00 | 0.00 | 0.00 | 53 | 1012.2 |
| 20260831151531 | 61 | 318 | 11.0 | 14.0 | 0.00 | 0.00 | 0.00 | 54 | 1012.3 |
| 20260831151031 | 60 | 306 | 8.0 | 8.0 | 0.00 | 0.00 | 0.00 | 55 | 1012.4 |
| 20260831150526 | 60 | 288 | 9.0 | 10.0 | 0.00 | 0.00 | 0.00 | 56 | 1012.3 |
| 20260831150022 | 59 | 284 | 9.0 | 11.0 | 0.00 | 0.00 | 0.00 | 56 | 1012.2 |
| 20260831145516 | 59 | 307 | 8.0 | 13.0 | 0.00 | 0.00 | 0.00 | 59 | 1012.2 |
| 20260831145013 | 58 | 298 | 7.0 | 8.0 | 0.00 | 0.00 | 0.00 | 59 | 1012.0 |
| 20260831144508 | 58 | 316 | 7.0 | 8.0 | 0.00 | 0.00 | 0.00 | 60 | 1012.2 |
| 20260831144003 | 57 | 293 | 6.0 | 8.0 | 0.00 | 0.00 | 0.00 | 61 | 1011.9 |
| 20260831143458 | 57 | 311 | 7.0 | 9.0 | 0.00 | 0.00 | 0.00 | 62 | 1012.0 |
| 20260831142953 | 56 | 280 | 9.0 | 11.0 | 0.00 | 0.00 | 0.00 | 62 | 1011.8 |
| 20260831142450 | 56 | 277 | 5.0 | 6.0 | 0.00 | 0.00 | 0.00 | 64 | 1011.8 |
| 20260831141944 | 55 | 277 | 7.0 | 8.0 | 0.00 | 0.00 | 0.00 | 66 | 1011.6 |
| 20260831141438 | 55 | 275 | 6.0 | 7.0 | 0.00 | 0.00 | 0.00 | 67 | 1011.7 |
| 20260831140933 | 54 | 278 | 9.0 | 11.0 | 0.00 | 0.00 | 0.00 | 67 | 1011.6 |
| 20260831140427 | 53 | 294 | 6.0 | 7.0 | 0.00 | 0.00 | 0.00 | 69 | 1011.4 |
| 20260831135926 | 53 | 319 | 5.0 | 6.0 | 0.00 | 0.00 | 0.00 | 69 | 1011.7 |
| 20260831135425 | 53 | 279 | 6.0 | 7.0 | 0.00 | 0.00 | 0.00 | 69 | 1011.4 |
| 20260831134920 | 53 | 298 | 8.0 | 9.0 | 0.00 | 0.00 | 0.00 | 70 | 1011.5 |
| 20260831134417 | 53 | 264 | 7.0 | 8.0 | 0.00 | 0.00 | 0.00 | 69 | 1011.4 |
| 20260831133916 | 52 | 324 | 7.0 | 9.0 | 0.00 | 0.00 | 0.00 | 71 | 1011.4 |
| 20260831133411 | 51 | 324 | 6.0 | 8.0 | 0.00 | 0.00 | 0.00 | 72 | 1011.5 |
| 20260831132906 | 51 | 308 | 9.0 | 10.0 | 0.00 | 0.00 | 0.00 | 74 | 1011.5 |
| 20260831132402 | 50 | 288 | 4.0 | 7.0 | 0.00 | 0.00 | 0.00 | 76 | 1011.4 |
| 20260831131901 | 50 | 300 | 5.0 | 7.0 | 0.00 | 0.00 | 0.00 | 77 | 1011.4 |
| 20260831131357 | 49 | 330 | 5.0 | 6.0 | 0.00 | 0.00 | 0.00 | 77 | 1011.1 |
| 20260831130852 | 49 | 302 | 6.0 | 7.0 | 0.00 | 0.00 | 0.00 | 77 | 1011.1 |
| 20260831130348 | 49 | 328 | 7.0 | 9.0 | 0.00 | 0.00 | 0.00 | 78 | 1011.0 |
| 20260831125847 | 48 | 317 | 6.0 | 7.0 | 0.00 | 0.00 | 0.00 | 78 | 1010.8 |
| 20260831125342 | 47 | 297 | 4.0 | 5.0 | 0.00 | 0.00 | 0.00 | 80 | 1011.1 |
| 20260831124837 | 45 | 173 | 2.0 | 2.0 | 0.00 | 0.00 | 0.00 | 86 | 1010.7 |
| 20260831124333 | 45 | 125 | 0.0 | 0.0 | 0.00 | 0.00 | 0.00 | 84 | 1010.6 |
| 20260831123832 | 46 | 38 | 2.0 | 3.0 | 0.00 | 0.00 | 0.00 | 83 | 1010.7 |
| 20260831123326 | 47 | 77 | 1.0 | 1.0 | 0.00 | 0.00 | 0.00 | 81 | 1010.8 |
| 20260831122821 | 45 | 198 | 3.0 | 3.0 | 0.00 | 0.00 | 0.00 | 85 | 1010.5 |
| 20260831122317 | 44 | 132 | 0.0 | 0.0 | 0.00 | 0.00 | 0.00 | 86 | 1010.2 |
| 20260831121816 | 45 | 114 | 1.0 | 1.0 | 0.00 | 0.00 | 0.00 | 85 | 1010.4 |
| 20260831121313 | 45 | 171 | 1.0 | 2.0 | 0.00 | 0.00 | 0.00 | 85 | 1010.4 |
| 20260831120808 | 46 | 213 | 3.0 | 3.0 | 0.00 | 0.00 | 0.00 | 84 | 1010.6 |
| 20260831120302 | 46 | 205 | 2.0 | 2.0 | 0.00 | 0.00 | 0.00 | 84 | 1010.4 |
| 20260831115757 | 46 | 188 | 3.0 | 3.0 | 0.00 | 0.00 | 0.00 | 84 | 1010.3 |
| 20260831115254 | 46 | 194 | 3.0 | 3.0 | 0.00 | 0.00 | 0.00 | 84 | 1010.4 |
| 20260831114753 | 46 | 269 | 5.0 | 6.0 | 0.00 | 0.00 | 0.00 | 82 | 1010.0 |
| 20260831114253 | 46 | 262 | 5.0 | 6.0 | 0.00 | 0.00 | 0.00 | 82 | 1010.5 |
| 20260831113748 | 46 | 272 | 5.0 | 6.0 | 0.00 | 0.00 | 0.00 | 82 | 1010.3 |
| 20260831113242 | 46 | 260 | 5.0 | 6.0 | 0.00 | 0.00 | 0.00 | 82 | 1010.3 |
| 20260831112742 | 46 | 232 | 3.0 | 3.0 | 0.00 | 0.00 | 0.00 | 83 | 1010.4 |
| 20260831112237 | 46 | 124 | 1.0 | 2.0 | 0.00 | 0.00 | 0.00 | 82 | 1010.4 |
| 20260831111733 | 46 | 313 | 3.0 | 3.0 | 0.00 | 0.00 | 0.00 | 82 | 1010.3 |
| 20260831111229 | 47 | 198 | 3.0 | 3.0 | 0.00 | 0.00 | 0.00 | 81 | 1010.2 |
| 20260831110724 | 48 | 318 | 3.0 | 3.0 | 0.00 | 0.00 | 0.00 | 79 | 1010.3 |
| 20260831110220 | 48 | 291 | 5.0 | 6.0 | 0.00 | 0.00 | 0.00 | 78 | 1010.4 |
| 20260831105718 | 48 | 273 | 4.0 | 5.0 | 0.00 | 0.00 | 0.00 | 78 | 1010.2 |
| 20260831105214 | 49 | 313 | 7.0 | 8.0 | 0.00 | 0.00 | 0.00 | 77 | 1010.2 |
| 20260831104708 | 48 | 314 | 7.0 | 8.0 | 0.00 | 0.00 | 0.00 | 78 | 1010.0 |
| 20260831104205 | 48 | 284 | 6.0 | 7.0 | 0.00 | 0.00 | 0.00 | 77 | 1009.9 |
| 20260831103705 | 48 | 286 | 6.0 | 7.0 | 0.00 | 0.00 | 0.00 | 78 | 1010.0 |
| 20260831103201 | 47 | 312 | 5.0 | 6.0 | 0.00 | 0.00 | 0.00 | 80 | 1009.9 |
| 20260831102700 | 46 | 134 | 1.0 | 2.0 | 0.00 | 0.00 | 0.00 | 83 | 1009.9 |
| 20260831102155 | 45 | 114 | 0.0 | 0.0 | 0.00 | 0.00 | 0.00 | 83 | 1009.8 |
| 20260831101650 | 46 | 129 | 0.0 | 0.0 | 0.00 | 0.00 | 0.00 | 82 | 1009.9 |
| 20260831101146 | 46 | 127 | 0.0 | 1.0 | 0.00 | 0.00 | 0.00 | 80 | 1009.5 |
| 20260831100642 | 47 | 126 | 0.0 | 0.0 | 0.00 | 0.00 | 0.00 | 79 | 1009.5 |
| 20260831100138 | 48 | 126 | 0.0 | 0.0 | 0.00 | 0.00 | 0.00 | 78 | 1009.6 |
| 20260831095636 | 49 | 82 | 2.0 | 2.0 | 0.00 | 0.00 | 0.00 | 76 | 1009.9 |
| 20260831095131 | 50 | 123 | 0.0 | 0.0 | 0.00 | 0.00 | 0.00 | 74 | 1009.9 |
| 20260831094626 | 51 | 163 | 1.0 | 2.0 | 0.00 | 0.00 | 0.00 | 73 | 1009.5 |
| 20260831094123 | 51 | 260 | 2.0 | 3.0 | 0.00 | 0.00 | 0.00 | 71 | 1009.5 |
| 20260831093618 | 51 | 217 | 4.0 | 6.0 | 0.00 | 0.00 | 0.00 | 71 | 1009.4 |
| 20260831093114 | 51 | 264 | 6.0 | 7.0 | 0.00 | 0.00 | 0.00 | 71 | 1009.2 |
| 20260831092610 | 50 | 271 | 7.0 | 8.0 | 0.00 | 0.00 | 0.00 | 72 | 1009.2 |
| 20260831092105 | 48 | 267 | 4.0 | 5.0 | 0.00 | 0.00 | 0.00 | 75 | 1009.3 |
| 20260831091605 | 47 | 128 | 0.0 | 0.0 | 0.00 | 0.00 | 0.00 | 80 | 1009.4 |
| 20260831091100 | 48 | 128 | 0.0 | 0.0 | 0.00 | 0.00 | 0.00 | 80 | 1009.5 |
| 20260831090555 | 48 | 123 | 0.0 | 0.0 | 0.00 | 0.00 | 0.00 | 79 | 1009.4 |
| 20260831090052 | 48 | 82 | 2.0 | 2.0 | 0.00 | 0.00 | 0.00 | 80 | 1009.3 |
| 20260831085547 | 48 | 114 | 1.0 | 1.0 | 0.00 | 0.00 | 0.00 | 80 | 1009.3 |
| 20260831085042 | 48 | 111 | 1.0 | 1.0 | 0.00 | 0.00 | 0.00 | 80 | 1009.0 |
| 20260831084538 | 48 | 127 | 1.0 | 1.0 | 0.00 | 0.00 | 0.00 | 80 | 1009.0 |
| 20260831084034 | 49 | 136 | 0.0 | 0.0 | 0.00 | 0.00 | 0.00 | 78 | 1009.1 |
| 20260831083530 | 49 | 127 | 0.0 | 0.0 | 0.00 | 0.00 | 0.00 | 76 | 1009.2 |
| 20260831083024 | 50 | 128 | 0.0 | 0.0 | 0.00 | 0.00 | 0.00 | 75 | 1009.2 |
| 20260831082523 | 50 | 130 | 0.0 | 1.0 | 0.00 | 0.00 | 0.00 | 76 | 1009.0 |
| 20260831082019 | 50 | 136 | 0.0 | 0.0 | 0.00 | 0.00 | 0.00 | 75 | 1008.8 |
| 20260831081514 | 50 | 158 | 1.0 | 2.0 | 0.00 | 0.00 | 0.00 | 75 | 1009.0 |
| 20260831081010 | 50 | 215 | 3.0 | 3.0 | 0.00 | 0.00 | 0.00 | 77 | 1008.9 |
| 20260831080504 | 49 | 234 | 3.0 | 5.0 | 0.00 | 0.00 | 0.00 | 80 | 1008.7 |
| 20260831080000 | 49 | 246 | 5.0 | 6.0 | 0.00 | 0.00 | 0.00 | 80 | 1008.7 |
| 20260831075455 | 49 | 249 | 4.0 | 5.0 | 0.00 | 0.00 | 0.00 | 81 | 1008.7 |
| 20260831074951 | 49 | 230 | 3.0 | 3.0 | 0.00 | 0.00 | 0.00 | 79 | 1008.6 |
| 20260831074450 | 49 | 169 | 2.0 | 2.0 | 0.00 | 0.00 | 0.00 | 77 | 1008.7 |
| 20260831073945 | 49 | 203 | 3.0 | 3.0 | 0.00 | 0.00 | 0.00 | 77 | 1008.7 |
| 20260831073444 | 50 | 164 | 2.0 | 2.0 | 0.00 | 0.00 | 0.00 | 76 | 1008.7 |
| 20260831072944 | 50 | 236 | 4.0 | 5.0 | 0.00 | 0.00 | 0.00 | 75 | 1008.6 |
| 20260831072440 | 50 | 227 | 4.0 | 5.0 | 0.00 | 0.00 | 0.00 | 74 | 1008.8 |
| 20260831071937 | 50 | 249 | 5.0 | 6.0 | 0.00 | 0.00 | 0.00 | 74 | 1008.6 |
| 20260831071435 | 50 | 253 | 4.0 | 5.0 | 0.00 | 0.00 | 0.00 | 74 | 1008.7 |
| 20260831070930 | 51 | 234 | 5.0 | 6.0 | 0.00 | 0.00 | 0.00 | 74 | 1008.6 |
| 20260831070430 | 51 | 262 | 5.0 | 6.0 | 0.00 | 0.00 | 0.00 | 73 | 1008.7 |
| 20260831065929 | 52 | 260 | 7.0 | 7.0 | 0.00 | 0.00 | 0.00 | 71 | 1008.6 |
| 20260831065427 | 52 | 229 | 7.0 | 10.0 | 0.00 | 0.00 | 0.00 | 71 | 1008.4 |
| 20260831064922 | 51 | 246 | 6.0 | 7.0 | 0.00 | 0.00 | 0.00 | 72 | 1008.7 |
| 20260831064417 | 52 | 216 | 4.0 | 5.0 | 0.00 | 0.00 | 0.00 | 72 | 1008.8 |
| 20260831063913 | 53 | 251 | 5.0 | 6.0 | 0.00 | 0.00 | 0.00 | 70 | 1008.9 |
| 20260831063408 | 53 | 281 | 5.0 | 6.0 | 0.00 | 0.00 | 0.00 | 68 | 1009.0 |
| 20260831062902 | 53 | 276 | 6.0 | 8.0 | 0.00 | 0.00 | 0.00 | 68 | 1009.0 |
| 20260831062357 | 54 | 247 | 5.0 | 6.0 | 0.00 | 0.00 | 0.00 | 68 | 1009.0 |
| 20260831061855 | 54 | 243 | 5.0 | 7.0 | 0.00 | 0.00 | 0.00 | 66 | 1009.1 |
| 20260831061355 | 54 | 254 | 6.0 | 7.0 | 0.00 | 0.00 | 0.00 | 65 | 1009.1 |
| 20260831060851 | 54 | 275 | 7.0 | 9.0 | 0.00 | 0.00 | 0.00 | 65 | 1009.1 |
| 20260831060346 | 55 | 259 | 7.0 | 9.0 | 0.00 | 0.00 | 0.00 | 66 | 1009.0 |
| 20260831055845 | 55 | 287 | 8.0 | 10.0 | 0.00 | 0.06 | 0.06 | 65 | 1009.1 |
| 20260831055340 | 55 | 223 | 7.0 | 8.0 | 0.00 | 0.06 | 0.06 | 64 | 1009.0 |
| 20260831054836 | 55 | 249 | 7.0 | 8.0 | 0.00 | 0.06 | 0.06 | 64 | 1008.8 |
| 20260831054331 | 56 | 286 | 8.0 | 9.0 | 0.00 | 0.06 | 0.06 | 63 | 1008.9 |
| 20260831053830 | 56 | 284 | 6.0 | 7.0 | 0.00 | 0.06 | 0.06 | 62 | 1009.0 |
| 20260831053328 | 56 | 261 | 8.0 | 9.0 | 0.00 | 0.06 | 0.06 | 61 | 1008.7 |
| 20260831052823 | 56 | 291 | 7.0 | 8.0 | 0.00 | 0.06 | 0.06 | 62 | 1008.9 |
| 20260831052322 | 56 | 238 | 5.0 | 7.0 | 0.00 | 0.06 | 0.06 | 62 | 1008.9 |
| 20260831051821 | 56 | 263 | 7.0 | 8.0 | 0.00 | 0.06 | 0.06 | 61 | 1008.8 |
| 20260831051319 | 56 | 278 | 5.0 | 7.0 | 0.00 | 0.06 | 0.06 | 61 | 1008.8 |
| 20260831050814 | 56 | 281 | 7.0 | 8.0 | 0.00 | 0.06 | 0.06 | 60 | 1008.7 |
| 20260831050313 | 56 | 270 | 8.0 | 9.0 | 0.00 | 0.06 | 0.06 | 59 | 1008.7 |
| 20260831045808 | 57 | 298 | 9.0 | 10.0 | 0.00 | 0.06 | 0.06 | 58 | 1009.1 |
| 20260831045305 | 57 | 295 | 14.0 | 15.0 | 0.00 | 0.06 | 0.06 | 57 | 1009.0 |
| 20260831044757 | 57 | 293 | 11.0 | 14.0 | 0.00 | 0.06 | 0.06 | 57 | 1008.9 |
| 20260831044252 | 58 | 343 | 10.0 | 11.0 | 0.00 | 0.06 | 0.06 | 55 | 1008.7 |
| 20260831043748 | 58 | 292 | 10.0 | 13.0 | 0.00 | 0.06 | 0.06 | 54 | 1008.7 |
| 20260831043243 | 59 | 281 | 14.0 | 15.0 | 0.00 | 0.06 | 0.06 | 53 | 1008.7 |
| 20260831042742 | 59 | 285 | 22.0 | 25.0 | 0.00 | 0.06 | 0.06 | 51 | 1008.8 |
| 20260831042237 | 59 | 277 | 24.0 | 27.0 | 0.00 | 0.06 | 0.06 | 51 | 1008.4 |
| 20260831041732 | 59 | 263 | 15.0 | 16.0 | 0.00 | 0.06 | 0.06 | 52 | 1008.3 |
| 20260831041232 | 59 | 256 | 14.0 | 18.0 | 0.00 | 0.06 | 0.06 | 51 | 1008.7 |
| 20260831040726 | 60 | 266 | 16.0 | 21.0 | 0.00 | 0.06 | 0.06 | 51 | 1008.4 |
| 20260831040226 | 60 | 282 | 15.0 | 20.0 | 0.00 | 0.06 | 0.06 | 51 | 1008.7 |
| 20260831035719 | 60 | 278 | 17.0 | 21.0 | 0.00 | 0.06 | 0.06 | 51 | 1008.2 |
| 20260831035213 | 60 | 262 | 11.0 | 13.0 | 0.00 | 0.06 | 0.06 | 52 | 1008.7 |
| 20260831034712 | 60 | 287 | 16.0 | 23.0 | 0.00 | 0.06 | 0.06 | 50 | 1008.4 |
| 20260831034208 | 60 | 275 | 13.0 | 17.0 | 0.00 | 0.06 | 0.06 | 50 | 1008.7 |
| 20260831033703 | 60 | 291 | 15.0 | 20.0 | 0.00 | 0.06 | 0.06 | 51 | 1008.3 |
| 20260831033203 | 60 | 265 | 22.0 | 25.0 | 0.00 | 0.06 | 0.06 | 50 | 1008.4 |
| 20260831032658 | 60 | 261 | 19.0 | 24.0 | 0.00 | 0.06 | 0.06 | 49 | 1008.3 |
| 20260831032153 | 60 | 268 | 18.0 | 23.0 | 0.00 | 0.06 | 0.06 | 50 | 1008.3 |
| 20260831031648 | 60 | 277 | 14.0 | 20.0 | 0.00 | 0.06 | 0.06 | 50 | 1008.2 |
| 20260831031147 | 60 | 275 | 16.0 | 18.0 | 0.00 | 0.06 | 0.06 | 50 | 1008.1 |
| 20260831030646 | 60 | 264 | 10.0 | 11.0 | 0.00 | 0.06 | 0.06 | 51 | 1008.1 |
| 20260831030146 | 60 | 261 | 11.0 | 13.0 | 0.00 | 0.06 | 0.06 | 51 | 1008.0 |
| 20260831025644 | 60 | 290 | 9.0 | 14.0 | 0.00 | 0.06 | 0.06 | 52 | 1008.0 |
| 20260831025139 | 60 | 293 | 9.0 | 11.0 | 0.00 | 0.06 | 0.06 | 51 | 1008.0 |
| 20260831024635 | 60 | 237 | 11.0 | 14.0 | 0.00 | 0.06 | 0.06 | 51 | 1007.6 |
| 20260831024133 | 60 | 267 | 11.0 | 14.0 | 0.00 | 0.06 | 0.06 | 50 | 1007.8 |
| 20260831023631 | 60 | 268 | 11.0 | 13.0 | 0.00 | 0.06 | 0.06 | 51 | 1008.0 |
| 20260831023126 | 60 | 246 | 15.0 | 20.0 | 0.00 | 0.06 | 0.06 | 49 | 1007.6 |
| 20260831022621 | 60 | 246 | 11.0 | 13.0 | 0.00 | 0.06 | 0.06 | 50 | 1007.6 |
| 20260831022116 | 60 | 266 | 13.0 | 20.0 | 0.00 | 0.06 | 0.06 | 50 | 1007.5 |
| 20260831021614 | 61 | 279 | 13.0 | 16.0 | 0.00 | 0.06 | 0.06 | 49 | 1007.5 |
| 20260831021110 | 61 | 242 | 13.0 | 15.0 | 0.00 | 0.06 | 0.06 | 49 | 1007.5 |
| 20260831020606 | 61 | 288 | 13.0 | 15.0 | 0.00 | 0.06 | 0.06 | 50 | 1007.6 |
| 20260831015556 | 61 | 276 | 14.0 | 20.0 | 0.00 | 0.06 | 0.06 | 49 | 1007.5 |
| 20260831015051 | 61 | 285 | 16.0 | 20.0 | 0.00 | 0.06 | 0.06 | 49 | 1007.5 |
| 20260831014546 | 61 | 282 | 15.0 | 18.0 | 0.00 | 0.06 | 0.06 | 49 | 1007.3 |
| 20260831014041 | 62 | 280 | 20.0 | 24.0 | 0.00 | 0.06 | 0.06 | 48 | 1007.3 |
| 20260831013537 | 62 | 287 | 23.0 | 27.0 | 0.00 | 0.06 | 0.06 | 46 | 1007.3 |
| 20260831013032 | 62 | 266 | 15.0 | 22.0 | 0.00 | 0.06 | 0.06 | 47 | 1007.5 |
| 20260831012527 | 62 | 293 | 18.0 | 24.0 | 0.00 | 0.06 | 0.06 | 46 | 1007.3 |
| 20260831012026 | 63 | 254 | 18.0 | 21.0 | 0.00 | 0.06 | 0.06 | 46 | 1007.2 |
| 20260831011521 | 63 | 250 | 21.0 | 23.0 | 0.00 | 0.06 | 0.06 | 45 | 1007.3 |
| 20260831011017 | 62 | 277 | 17.0 | 18.0 | 0.00 | 0.06 | 0.06 | 47 | 1007.2 |
| 20260831010517 | 62 | 297 | 18.0 | 21.0 | 0.00 | 0.06 | 0.06 | 47 | 1007.2 |
| 20260831010013 | 63 | 291 | 19.0 | 24.0 | 0.00 | 0.06 | 0.06 | 46 | 1007.0 |
| 20260831005508 | 63 | 269 | 22.0 | 25.0 | 0.00 | 0.06 | 0.06 | 45 | 1007.5 |
| 20260831005007 | 63 | 279 | 20.0 | 25.0 | 0.00 | 0.06 | 0.06 | 45 | 1007.2 |
| 20260831004504 | 63 | 270 | 23.0 | 25.0 | 0.00 | 0.06 | 0.06 | 46 | 1007.2 |
| 20260831003959 | 63 | 283 | 19.0 | 22.0 | 0.00 | 0.06 | 0.06 | 46 | 1007.2 |
| 20260831003455 | 63 | 257 | 11.0 | 13.0 | 0.00 | 0.06 | 0.06 | 48 | 1007.7 |
| 20260831002954 | 63 | 272 | 30.0 | 37.0 | 0.00 | 0.06 | 0.06 | 45 | 1007.5 |
| 20260831002454 | 64 | 276 | 25.0 | 29.0 | 0.00 | 0.06 | 0.06 | 45 | 1007.5 |
| 20260831001949 | 64 | 303 | 13.0 | 16.0 | 0.00 | 0.06 | 0.06 | 45 | 1007.3 |
| 20260831001444 | 64 | 255 | 20.0 | 23.0 | 0.00 | 0.06 | 0.06 | 45 | 1007.2 |
| 20260831000941 | 63 | 287 | 22.0 | 27.0 | 0.00 | 0.06 | 0.06 | 45 | 1007.2 |
| 20260831000439 | 64 | 288 | 30.0 | 32.0 | 0.00 | 0.06 | 0.06 | 43 | 1007.2 |
| 20260830235935 | 64 | 276 | 20.0 | 27.0 | 0.00 | 0.06 | 0.06 | 44 | 1007.5 |
| 20260830235431 | 64 | 291 | 25.0 | 29.0 | 0.00 | 0.06 | 0.06 | 43 | 1007.2 |
| 20260830234926 | 64 | 290 | 25.0 | 33.0 | 0.00 | 0.06 | 0.06 | 43 | 1007.1 |
| 20260830234421 | 64 | 281 | 25.0 | 27.0 | 0.00 | 0.06 | 0.06 | 44 | 1007.1 |
| 20260830233917 | 65 | 268 | 25.0 | 27.0 | 0.00 | 0.06 | 0.06 | 43 | 1007.2 |
| 20260830233412 | 65 | 292 | 22.0 | 29.0 | 0.00 | 0.06 | 0.06 | 42 | 1007.1 |
| 20260830232907 | 65 | 271 | 24.0 | 30.0 | 0.00 | 0.06 | 0.06 | 43 | 1006.9 |
| 20260830232403 | 66 | 264 | 17.0 | 20.0 | 0.00 | 0.06 | 0.06 | 43 | 1006.9 |
| 20260830231900 | 66 | 293 | 20.0 | 27.0 | 0.00 | 0.06 | 0.06 | 42 | 1006.7 |
| 20260830231354 | 66 | 292 | 23.0 | 29.0 | 0.00 | 0.06 | 0.06 | 41 | 1006.7 |
| 20260830230854 | 66 | 271 | 18.0 | 22.0 | 0.00 | 0.06 | 0.06 | 43 | 1007.0 |
| 20260830230349 | 67 | 269 | 22.0 | 26.0 | 0.00 | 0.06 | 0.06 | 41 | 1006.9 |
| 20260830225848 | 66 | 285 | 21.0 | 25.0 | 0.00 | 0.06 | 0.06 | 42 | 1007.0 |
| 20260830225344 | 66 | 281 | 17.0 | 20.0 | 0.00 | 0.06 | 0.06 | 43 | 1007.2 |
| 20260830224839 | 66 | 279 | 24.0 | 29.0 | 0.00 | 0.06 | 0.06 | 42 | 1007.0 |
| 20260830224333 | 67 | 241 | 20.0 | 24.0 | 0.00 | 0.06 | 0.06 | 43 | 1006.8 |
| 20260830223830 | 66 | 263 | 23.0 | 29.0 | 0.00 | 0.06 | 0.06 | 42 | 1007.2 |
| 20260830223326 | 67 | 286 | 23.0 | 27.0 | 0.00 | 0.06 | 0.06 | 42 | 1007.0 |
| 20260830222825 | 66 | 242 | 17.0 | 24.0 | 0.00 | 0.06 | 0.06 | 44 | 1007.2 |
| 20260830222320 | 65 | 253 | 23.0 | 26.0 | 0.00 | 0.06 | 0.06 | 42 | 1007.2 |
| 20260830221815 | 64 | 229 | 9.0 | 11.0 | 0.00 | 0.06 | 0.06 | 47 | 1007.2 |
| 20260830221313 | 63 | 230 | 7.0 | 9.0 | 0.00 | 0.06 | 0.06 | 48 | 1007.2 |
| 20260830220812 | 63 | 232 | 9.0 | 9.0 | 0.00 | 0.06 | 0.06 | 48 | 1007.5 |
| 20260830220312 | 63 | 233 | 9.0 | 10.0 | 0.00 | 0.06 | 0.06 | 47 | 1007.6 |
| 20260830215810 | 63 | 225 | 7.0 | 9.0 | 0.00 | 0.06 | 0.06 | 48 | 1007.5 |
| 20260830215306 | 63 | 244 | 11.0 | 13.0 | 0.00 | 0.06 | 0.06 | 48 | 1007.8 |
| 20260830214800 | 63 | 233 | 7.0 | 9.0 | 0.00 | 0.06 | 0.06 | 49 | 1007.5 |
| 20260830214255 | 62 | 254 | 11.0 | 13.0 | 0.00 | 0.06 | 0.06 | 48 | 1007.8 |
| 20260830213754 | 62 | 240 | 10.0 | 13.0 | 0.00 | 0.06 | 0.06 | 49 | 1007.7 |
| 20260830213249 | 63 | 221 | 9.0 | 10.0 | 0.00 | 0.06 | 0.06 | 48 | 1007.6 |
| 20260830212745 | 63 | 219 | 11.0 | 11.0 | 0.00 | 0.06 | 0.06 | 49 | 1007.3 |
| 20260830212241 | 64 | 290 | 15.0 | 18.0 | 0.00 | 0.06 | 0.06 | 46 | 1007.8 |
| 20260830211740 | 64 | 238 | 17.0 | 22.0 | 0.00 | 0.06 | 0.06 | 46 | 1007.8 |
| 20260830211239 | 64 | 249 | 13.0 | 15.0 | 0.00 | 0.06 | 0.06 | 48 | 1007.9 |
| 20260830210736 | 63 | 244 | 13.0 | 15.0 | 0.00 | 0.06 | 0.06 | 46 | 1008.0 |
| 20260830210234 | 64 | 248 | 18.0 | 22.0 | 0.00 | 0.06 | 0.06 | 46 | 1008.1 |
| 20260830205732 | 64 | 256 | 10.0 | 13.0 | 0.00 | 0.06 | 0.06 | 48 | 1007.9 |
| 20260830205227 | 64 | 279 | 19.0 | 23.0 | 0.00 | 0.06 | 0.06 | 46 | 1007.9 |
| 20260830204722 | 64 | 240 | 20.0 | 23.0 | 0.00 | 0.06 | 0.06 | 44 | 1008.1 |
| 20260830204221 | 64 | 264 | 15.0 | 20.0 | 0.00 | 0.06 | 0.06 | 46 | 1008.0 |
| 20260830203717 | 64 | 276 | 17.0 | 18.0 | 0.00 | 0.06 | 0.06 | 46 | 1008.0 |
| 20260830203213 | 64 | 296 | 9.0 | 11.0 | 0.00 | 0.06 | 0.06 | 46 | 1007.9 |
| 20260830202712 | 63 | 227 | 11.0 | 14.0 | 0.00 | 0.06 | 0.06 | 49 | 1007.8 |
| 20260830202208 | 64 | 244 | 20.0 | 23.0 | 0.00 | 0.06 | 0.06 | 46 | 1008.1 |